Groton, CT

2:11 AM EST on January 23, 2018 (GMT -0500)
Groton-New London

Weather History for KGON - November, 2011

Change the Weather History Date:

Saturday, November 19, 2011

  Actual Average Record
Temperature  
Mean Temperature 42 °F -  
Max Temperature 54 °F 51 °F 65 °F (1991)
Min Temperature 32 °F 33 °F 21 °F (1986)
Degree Days  
Heating Degree Days 22    
Moisture  
Dew Point 36 °F    
Average Humidity 63    
Maximum Humidity 89    
Minimum Humidity 43    
Precipitation  
Precipitation 0.00 in - - ()
Sea Level Pressure  
Sea Level Pressure 30.36 in    
Wind  
Wind Speed 13 mph (SW)    
Max Wind Speed 20 mph    
Max Gust Speed 30 mph    
Visibility 10 miles    
Events      
Averages and records for this station are not official NWS values.
T = Trace of Precipitation, MM = Missing Value Source: NWS Daily Summary

Daily Weather History Graph

Daily Weather History Graph

Search for Another Location

Airport or City:

Trip Planner

Search our weather history database for the weather conditions in past years. The results will help you decide how hot, cold, wet, or windy it might be!

Date:

Astronomy

Nov. 19, 2011 Rise Set
Actual Time 6:40 AM EST 4:25 PM EST
Civil Twilight 6:10 AM EST 4:55 PM EST
Nautical Twilight 5:37 AM EST 5:29 PM EST
Astronomical Twilight 5:04 AM EST 6:02 PM EST
Moon No Moon Rise 12:45 PM EST (11/19)
Length of Visible Light 10h 44m
Length of Day
9h 44m
Last Quarter, 38% of the Moon is Illuminated
Nov 19
Last Quarter
Nov 25
New
Dec 2
First Quarter
Dec 10
Full
Dec 17
Last Quarter

Hourly Weather History & Observations

Time (EST) Temp. Windchill Dew Point Humidity Pressure Visibility Wind Dir Wind Speed Gust Speed Precip Events Conditions
12:56 AM 32.0 °F - 25.0 °F 75% 30.41 in 10.0 mi Calm Calm - N/A   Clear
1:56 AM 43.0 °F 37.7 °F 28.9 °F 58% 30.41 in 10.0 mi West 9.2 mph 19.6 mph N/A   Mostly Cloudy
2:56 AM 44.1 °F 36.8 °F 30.9 °F 60% 30.40 in 10.0 mi SW 16.1 mph 24.2 mph N/A   Mostly Cloudy
3:56 AM 44.1 °F 37.4 °F 30.0 °F 58% 30.41 in 10.0 mi WSW 13.8 mph 24.2 mph N/A   Clear
4:56 AM 44.1 °F 37.1 °F 30.0 °F 58% 30.41 in 10.0 mi WSW 15.0 mph 24.2 mph N/A   Clear
5:56 AM 44.1 °F 36.5 °F 30.9 °F 60% 30.42 in 10.0 mi WSW 17.3 mph 27.6 mph N/A   Clear
6:56 AM 45.0 °F 37.1 °F 30.0 °F 56% 30.42 in 10.0 mi SW 19.6 mph 28.8 mph N/A   Clear
7:56 AM 46.0 °F 38.8 °F 30.9 °F 56% 30.43 in 10.0 mi SW 18.4 mph 27.6 mph N/A   Clear
8:56 AM 48.0 °F - 33.1 °F 56% 30.43 in 10.0 mi WSW 18.4 mph 26.5 mph N/A   Clear
9:56 AM 48.9 °F - 32.0 °F 52% 30.43 in 10.0 mi WSW 19.6 mph 29.9 mph N/A   Clear
10:56 AM 50.0 °F - 32.0 °F 50% 30.42 in 10.0 mi SW 17.3 mph 21.9 mph N/A   Clear
11:56 AM 51.1 °F - 30.0 °F 44% 30.38 in 10.0 mi WSW 16.1 mph 24.2 mph N/A   Clear
12:56 PM 51.8 °F - 30.2 °F 44% 30.36 in 10.0 mi WSW 15.0 mph 23.0 mph N/A   Clear
1:56 PM 52.0 °F - 30.0 °F 43% 30.35 in 10.0 mi WSW 13.8 mph 21.9 mph N/A   Clear
2:56 PM 52.0 °F - 35.1 °F 53% 30.34 in 10.0 mi SW 17.3 mph - N/A   Clear
3:56 PM 50.0 °F - 37.9 °F 63% 30.33 in 10.0 mi SW 16.1 mph 23.0 mph N/A   Clear
4:56 PM 50.0 °F - 39.9 °F 68% 30.33 in 10.0 mi SW 17.3 mph - N/A   Clear
5:56 PM 50.0 °F - 41.0 °F 71% 30.32 in 10.0 mi SSW 15.0 mph - N/A   Clear
6:56 PM 51.1 °F - 42.1 °F 71% 30.31 in 10.0 mi SSW 13.8 mph - N/A   Clear
7:56 PM 52.0 °F - 44.1 °F 74% 30.30 in 10.0 mi SW 17.3 mph - N/A   Clear
8:56 PM 52.0 °F - 46.9 °F 83% 30.29 in 10.0 mi SW 13.8 mph - N/A   Clear
9:56 PM 53.1 °F - 48.9 °F 86% 30.27 in 10.0 mi SSW 16.1 mph - N/A   Overcast
10:56 PM 53.1 °F - 50.0 °F 89% 30.26 in 10.0 mi SSW 15.0 mph - N/A   Overcast
11:56 PM 54.0 °F - 50.0 °F 86% 30.24 in 10.0 mi SW 13.8 mph - N/A   Overcast